MPH9117 LPPR-EHAM

Flight info

Callsign MPH9117
Flight time 1h 56m
Altitude 24000
Route TURON P600 ASDEB/N0485F400 DCT LOTEE DCT AZFIC DCT ERIGA DCT GODIX DCT PODEM UN873 BAZOS DCT LUMIL DCT BELOB UY873 DENUT
Aircraft MD11/H-SDE1E2E3FGHIJ2J3J4J5M1RWXY/LB1D1

Departure

Time 2026-05-04 14:05
Airport Francisco de Sá Carneiro Airport (LPPR)

Arrival

Time 2026-05-04 16:01
Airport Amsterdam Airport Schiphol (EHAM)
Time Latitude Longitude Altitude Speed Heading
2026-05-04 13:34 41.23772 -8.67300 242 ft 0 kts 49°
2026-05-04 13:56 41.23771 -8.67300 242 ft 1 kts 49°
2026-05-04 13:56 41.23761 -8.67316 242 ft 3 kts 49°
2026-05-04 13:56 41.23736 -8.67353 242 ft 3 kts 55°
2026-05-04 13:57 41.23727 -8.67373 242 ft 3 kts 82°
2026-05-04 13:57 41.23727 -8.67395 242 ft 3 kts 110°
2026-05-04 13:58 41.23742 -8.67432 242 ft 4 kts 126°
2026-05-04 14:00 41.23742 -8.67431 242 ft 1 kts 126°
2026-05-04 14:01 41.23734 -8.67418 242 ft 4 kts 126°
2026-05-04 14:01 41.23705 -8.67373 242 ft 9 kts 136°
2026-05-04 14:01 41.23567 -8.67356 242 ft 11 kts 206°
2026-05-04 14:02 41.23495 -8.67383 242 ft 11 kts 181°
2026-05-04 14:02 41.23424 -8.67368 242 ft 10 kts 170°
2026-05-04 14:02 41.23365 -8.67371 242 ft 7 kts 202°
2026-05-04 14:02 41.23338 -8.67417 242 ft 6 kts 250°
2026-05-04 14:03 41.23327 -8.67473 242 ft 7 kts 257°
2026-05-04 14:03 41.23317 -8.67533 242 ft 7 kts 258°
2026-05-04 14:03 41.23311 -8.67577 242 ft 1 kts 259°
2026-05-04 14:03 41.23310 -8.67586 243 ft 2 kts 259°
2026-05-04 14:04 41.23298 -8.67701 243 ft 3 kts 285°
2026-05-04 14:04 41.23320 -8.67726 243 ft 7 kts 330°
2026-05-04 14:04 41.23391 -8.67751 244 ft 30 kts 348°
2026-05-04 14:05 41.25129 -8.68180 801 ft 170 kts 349°
2026-05-04 14:05 41.26247 -8.68435 2334 ft 160 kts 346°
2026-05-04 14:05 41.27373 -8.68736 3499 ft 174 kts 345°
2026-05-04 14:06 41.28704 -8.69114 3967 ft 220 kts 345°
2026-05-04 14:06 41.30333 -8.69580 4264 ft 250 kts 346°
2026-05-04 14:06 41.32048 -8.70050 5353 ft 254 kts 346°
2026-05-04 14:06 41.33802 -8.70473 6414 ft 261 kts 353°
2026-05-04 14:07 41.35628 -8.70304 7405 ft 268 kts
2026-05-04 14:07 41.37472 -8.69964 8435 ft 273 kts
2026-05-04 14:07 41.39376 -8.69595 9460 ft 279 kts
2026-05-04 14:07 41.41329 -8.69212 10326 ft 294 kts
2026-05-04 14:08 41.43487 -8.68799 10449 ft 331 kts
2026-05-04 14:08 41.45868 -8.68342 10867 ft 354 kts
2026-05-04 14:08 41.48333 -8.67860 11895 ft 359 kts
2026-05-04 14:08 41.50827 -8.67371 12897 ft 365 kts
2026-05-04 14:09 41.55901 -8.66380 14746 ft 377 kts
2026-05-04 14:09 41.58510 -8.65871 15643 ft 382 kts
2026-05-04 14:10 41.63843 -8.64833 17417 ft 393 kts
2026-05-04 14:10 41.66562 -8.64303 18290 ft 398 kts
2026-05-04 14:10 41.69330 -8.63765 19036 ft 403 kts
2026-05-04 14:10 41.72121 -8.63221 19757 ft 409 kts
2026-05-04 14:11 41.74951 -8.62668 20529 ft 413 kts
2026-05-04 14:11 41.80712 -8.61542 22062 ft 423 kts
2026-05-04 14:11 41.83645 -8.60968 22782 ft 428 kts
2026-05-04 14:12 41.86608 -8.60388 23500 ft 433 kts
2026-05-04 14:12 41.89615 -8.59799 24137 ft 438 kts
2026-05-04 14:12 41.95714 -8.58599 25393 ft 447 kts
2026-05-04 14:13 41.98782 -8.57995 26009 ft 452 kts
2026-05-04 14:13 42.01931 -8.57375 26613 ft 457 kts
2026-05-04 14:13 42.05090 -8.56753 27204 ft 461 kts
2026-05-04 14:13 42.08292 -8.56166 27778 ft 465 kts
2026-05-04 14:14 42.11514 -8.55627 28333 ft 469 kts
2026-05-04 14:14 42.18015 -8.54599 29407 ft 477 kts
2026-05-04 14:14 42.21330 -8.54079 29920 ft 482 kts
2026-05-04 14:15 42.28050 -8.53013 30858 ft 488 kts
2026-05-04 14:15 42.34792 -8.51929 32101 ft 486 kts
2026-05-04 14:16 42.41490 -8.50849 33385 ft 483 kts
2026-05-04 14:16 42.44830 -8.50311 34000 ft 482 kts
2026-05-04 14:17 42.51432 -8.48713 34930 ft 487 kts 14°
2026-05-04 14:17 42.54585 -8.46931 35349 ft 492 kts 24°
2026-05-04 14:17 42.60091 -8.41310 36133 ft 501 kts 41°
2026-05-04 14:18 42.62574 -8.37970 36550 ft 501 kts 42°
2026-05-04 14:18 42.67510 -8.31400 37355 ft 500 kts 40°
2026-05-04 14:19 42.72644 -8.25044 38127 ft 498 kts 39°
2026-05-04 14:19 42.75247 -8.21916 38504 ft 498 kts 38°
2026-05-04 14:19 42.77846 -8.18813 38839 ft 497 kts 38°
2026-05-04 14:19 42.80447 -8.15706 39120 ft 497 kts 39°
2026-05-04 14:20 42.83050 -8.12590 39389 ft 497 kts 39°
2026-05-04 14:20 42.85639 -8.09480 39673 ft 496 kts 39°
2026-05-04 14:20 42.88231 -8.06361 39929 ft 496 kts 39°
2026-05-04 14:21 42.93440 -8.00076 40042 ft 502 kts 39°
2026-05-04 14:21 42.96049 -7.96921 40040 ft 500 kts 39°
2026-05-04 14:21 43.01237 -7.90634 40041 ft 498 kts 39°
2026-05-04 14:22 43.06426 -7.84333 40040 ft 498 kts 39°
2026-05-04 14:22 43.11570 -7.78073 40037 ft 497 kts 39°
2026-05-04 14:23 43.19314 -7.68607 40018 ft 497 kts 40°
2026-05-04 14:24 43.24453 -7.62271 40018 ft 497 kts 40°
2026-05-04 14:24 43.29603 -7.55930 40019 ft 497 kts 40°
2026-05-04 14:25 43.34746 -7.49602 40016 ft 497 kts 40°
2026-05-04 14:25 43.42464 -7.40082 40016 ft 496 kts 40°
2026-05-04 14:26 43.47579 -7.33754 40019 ft 497 kts 40°
2026-05-04 14:26 43.52711 -7.27388 40015 ft 497 kts 40°
2026-05-04 14:27 43.57845 -7.21004 40014 ft 496 kts 40°
2026-05-04 14:27 43.62975 -7.14610 40014 ft 496 kts 40°
2026-05-04 14:28 43.68099 -7.08208 40014 ft 496 kts 40°
2026-05-04 14:28 43.73216 -7.01800 40012 ft 496 kts 40°
2026-05-04 14:29 43.83432 -6.88923 40012 ft 496 kts 41°
2026-05-04 14:30 43.88523 -6.82463 40011 ft 496 kts 41°
2026-05-04 14:31 43.95314 -6.73861 40014 ft 496 kts 41°
2026-05-04 14:32 44.05502 -6.60923 40007 ft 496 kts 41°
2026-05-04 14:32 44.10587 -6.54441 40002 ft 496 kts 41°
2026-05-04 14:33 44.15632 -6.47994 40004 ft 496 kts 41°
2026-05-04 14:33 44.20727 -6.41467 40005 ft 496 kts 41°
2026-05-04 14:34 44.25802 -6.34949 40000 ft 496 kts 41°
2026-05-04 14:34 44.30878 -6.28414 40003 ft 496 kts 42°
2026-05-04 14:35 44.35910 -6.21920 40004 ft 496 kts 42°
2026-05-04 14:35 44.40980 -6.15359 39997 ft 496 kts 42°
2026-05-04 14:36 44.46032 -6.08758 40000 ft 496 kts 42°
2026-05-04 14:36 44.51083 -6.02158 39997 ft 496 kts 42°
2026-05-04 14:37 44.56110 -5.95599 39997 ft 496 kts 42°
2026-05-04 14:37 44.61164 -5.88996 39997 ft 496 kts 42°
2026-05-04 14:38 44.66214 -5.82383 39996 ft 497 kts 42°
2026-05-04 14:38 44.71267 -5.75748 40000 ft 496 kts 43°
2026-05-04 14:39 44.76308 -5.69112 39996 ft 496 kts 43°
2026-05-04 14:39 44.81343 -5.62466 39992 ft 496 kts 43°
2026-05-04 14:40 44.88883 -5.52483 39998 ft 496 kts 43°
2026-05-04 14:40 44.93918 -5.45796 39989 ft 496 kts 43°
2026-05-04 14:41 44.98909 -5.39091 39996 ft 496 kts 44°
2026-05-04 14:42 45.08696 -5.25343 39992 ft 496 kts 45°
2026-05-04 14:42 45.13558 -5.18499 39992 ft 496 kts 45°
2026-05-04 14:43 45.18456 -5.11607 39989 ft 495 kts 45°
2026-05-04 14:43 45.23345 -5.04710 39987 ft 495 kts 45°
2026-05-04 14:44 45.28224 -4.97808 39987 ft 495 kts 45°
2026-05-04 14:44 45.33100 -4.90893 39987 ft 495 kts 45°
2026-05-04 14:45 45.37969 -4.83968 39985 ft 495 kts 45°
2026-05-04 14:45 45.42832 -4.77036 39981 ft 495 kts 45°
2026-05-04 14:46 45.47666 -4.70126 39991 ft 495 kts 45°
2026-05-04 14:46 45.52525 -4.63163 39984 ft 495 kts 45°
2026-05-04 14:47 45.57373 -4.56186 39983 ft 495 kts 45°
2026-05-04 14:47 45.62211 -4.49157 39984 ft 495 kts 46°
2026-05-04 14:48 45.67045 -4.42147 39982 ft 495 kts 45°
2026-05-04 14:48 45.71890 -4.35127 39987 ft 495 kts 46°
2026-05-04 14:49 45.76725 -4.28109 39986 ft 495 kts 46°
2026-05-04 14:49 45.81524 -4.21124 39982 ft 495 kts 46°
2026-05-04 14:50 45.86356 -4.14072 39981 ft 495 kts 46°
2026-05-04 14:50 45.91178 -4.07016 39983 ft 495 kts 46°
2026-05-04 14:51 45.95995 -3.99948 39984 ft 495 kts 46°
2026-05-04 14:51 46.00810 -3.92864 39980 ft 495 kts 46°
2026-05-04 14:52 46.05594 -3.85807 39981 ft 495 kts 46°
2026-05-04 14:52 46.10411 -3.78683 39982 ft 495 kts 46°
2026-05-04 14:53 46.15215 -3.71551 39974 ft 496 kts 47°
2026-05-04 14:53 46.19997 -3.64378 39977 ft 496 kts 47°
2026-05-04 14:54 46.24796 -3.57190 39979 ft 497 kts 47°
2026-05-04 14:54 46.29603 -3.49998 39974 ft 498 kts 47°
2026-05-04 14:55 46.34411 -3.42795 39976 ft 497 kts 47°
2026-05-04 14:55 46.39216 -3.35574 39968 ft 497 kts 47°
2026-05-04 14:56 46.43988 -3.28382 39973 ft 497 kts 47°
2026-05-04 14:56 46.48786 -3.21132 39968 ft 498 kts 47°
2026-05-04 14:57 46.53574 -3.13876 39966 ft 497 kts 47°
2026-05-04 14:57 46.58214 -3.06442 39967 ft 496 kts 54°
2026-05-04 14:58 46.61871 -2.98034 39967 ft 494 kts 62°
2026-05-04 14:58 46.65196 -2.89307 39967 ft 493 kts 62°
2026-05-04 14:59 46.68566 -2.80593 39965 ft 493 kts 61°
2026-05-04 15:00 46.73696 -2.67612 39960 ft 493 kts 61°
2026-05-04 15:00 46.77122 -2.58950 39958 ft 492 kts 61°
2026-05-04 15:01 46.82234 -2.45958 39958 ft 492 kts 62°
2026-05-04 15:01 46.85802 -2.37449 39954 ft 492 kts 53°
2026-05-04 15:02 46.90419 -2.30013 39957 ft 494 kts 46°
2026-05-04 15:02 46.95340 -2.22981 39950 ft 495 kts 45°
2026-05-04 15:03 47.00226 -2.15866 39953 ft 495 kts 46°
2026-05-04 15:03 47.05030 -2.08700 39956 ft 495 kts 46°
2026-05-04 15:04 47.09837 -2.01465 39958 ft 496 kts 46°
2026-05-04 15:04 47.14649 -1.94203 39960 ft 496 kts 46°
2026-05-04 15:05 47.19465 -1.86923 39961 ft 497 kts 46°
2026-05-04 15:05 47.24287 -1.79616 39964 ft 497 kts 46°
2026-05-04 15:06 47.29073 -1.72343 39958 ft 496 kts 47°
2026-05-04 15:07 47.36277 -1.61357 39955 ft 496 kts 47°
2026-05-04 15:07 47.41060 -1.54037 39948 ft 495 kts 47°
2026-05-04 15:08 47.45834 -1.46672 39943 ft 496 kts 47°
2026-05-04 15:08 47.50567 -1.39330 39940 ft 495 kts 47°
2026-05-04 15:09 47.55327 -1.31963 39937 ft 495 kts 47°
2026-05-04 15:09 47.60035 -1.24678 39933 ft 495 kts 47°
2026-05-04 15:10 47.67159 -1.13617 39930 ft 494 kts 47°
2026-05-04 15:11 47.74272 -1.02525 39949 ft 494 kts 47°
2026-05-04 15:11 47.79005 -0.95117 39941 ft 494 kts 47°
2026-05-04 15:12 47.83714 -0.87727 39959 ft 493 kts 47°
2026-05-04 15:12 47.88457 -0.80262 39961 ft 493 kts 47°
2026-05-04 15:13 47.93145 -0.72861 39966 ft 494 kts 47°
2026-05-04 15:13 47.97860 -0.65397 39966 ft 494 kts 47°
2026-05-04 15:14 48.02564 -0.57898 39964 ft 495 kts 48°
2026-05-04 15:14 48.07269 -0.50341 39956 ft 496 kts 48°
2026-05-04 15:15 48.11948 -0.42846 39949 ft 496 kts 47°
2026-05-04 15:15 48.16670 -0.35283 39957 ft 496 kts 47°
2026-05-04 15:16 48.23730 -0.23941 39945 ft 496 kts 48°
2026-05-04 15:17 48.30019 -0.13793 39950 ft 496 kts 48°
2026-05-04 15:17 48.37059 -0.02387 39946 ft 496 kts 48°
2026-05-04 15:18 48.41715 0.05186 39955 ft 496 kts 48°
2026-05-04 15:19 48.48704 0.16686 39960 ft 496 kts 49°
2026-05-04 15:19 48.55451 0.28522 39956 ft 496 kts 50°
2026-05-04 15:20 48.59932 0.36433 39954 ft 495 kts 50°
2026-05-04 15:20 48.64424 0.44346 39960 ft 496 kts 50°
2026-05-04 15:21 48.68919 0.52277 39954 ft 495 kts 50°
2026-05-04 15:22 48.75609 0.64124 39956 ft 495 kts 50°
2026-05-04 15:22 48.82314 0.76056 39956 ft 495 kts 50°
2026-05-04 15:23 48.86776 0.84025 39962 ft 495 kts 50°
2026-05-04 15:23 48.91236 0.92014 39960 ft 495 kts 50°
2026-05-04 15:24 49.00112 1.07989 39955 ft 495 kts 50°
2026-05-04 15:25 49.04534 1.16045 39956 ft 495 kts 51°
2026-05-04 15:26 49.11153 1.28136 39962 ft 494 kts 50°
2026-05-04 15:26 49.17772 1.40205 39958 ft 493 kts 50°
2026-05-04 15:27 49.24386 1.52259 39956 ft 493 kts 48°
2026-05-04 15:28 49.31636 1.63333 39953 ft 492 kts 43°
2026-05-04 15:29 49.39120 1.74155 39945 ft 492 kts 44°
2026-05-04 15:30 49.56988 1.98557 39939 ft 490 kts 36°
2026-05-04 15:31 49.65256 2.07771 39939 ft 491 kts 36°
2026-05-04 15:32 49.78988 2.23447 39944 ft 490 kts 37°
2026-05-04 15:34 49.92689 2.39243 39944 ft 491 kts 37°
2026-05-04 15:34 50.00888 2.48747 39939 ft 490 kts 37°
2026-05-04 15:35 50.09084 2.58290 39939 ft 491 kts 37°
2026-05-04 15:36 50.17242 2.67836 39945 ft 490 kts 37°
2026-05-04 15:36 50.22680 2.74275 39949 ft 490 kts 37°
2026-05-04 15:37 50.28120 2.80710 39925 ft 491 kts 37°
2026-05-04 15:37 50.30857 2.83944 39632 ft 491 kts 37°
2026-05-04 15:37 50.33567 2.87146 39304 ft 489 kts 37°
2026-05-04 15:38 50.36302 2.90381 38845 ft 488 kts 37°
2026-05-04 15:38 50.38999 2.93576 38305 ft 486 kts 37°
2026-05-04 15:38 50.41774 2.96597 37800 ft 486 kts 32°
2026-05-04 15:38 50.44650 2.99265 37307 ft 488 kts 29°
2026-05-04 15:39 50.47636 3.01799 36819 ft 490 kts 28°
2026-05-04 15:39 50.50670 3.04289 36334 ft 492 kts 27°
2026-05-04 15:39 50.56754 3.09296 35378 ft 495 kts 28°
2026-05-04 15:40 50.59806 3.11850 34892 ft 497 kts 28°
2026-05-04 15:40 50.62819 3.14394 34403 ft 499 kts 29°
2026-05-04 15:40 50.65919 3.17027 33912 ft 500 kts 29°
2026-05-04 15:40 50.68951 3.19610 33368 ft 502 kts 29°
2026-05-04 15:41 50.72037 3.22231 32839 ft 503 kts 29°
2026-05-04 15:41 50.75124 3.24830 32251 ft 503 kts 28°
2026-05-04 15:41 50.78203 3.27407 31677 ft 502 kts 28°
2026-05-04 15:41 50.81302 3.29995 31110 ft 502 kts 28°
2026-05-04 15:42 50.84386 3.32573 30564 ft 501 kts 28°
2026-05-04 15:42 50.87423 3.35114 29986 ft 501 kts 29°
2026-05-04 15:42 50.90498 3.37692 29329 ft 500 kts 29°
2026-05-04 15:42 50.93524 3.40234 28728 ft 496 kts 28°
2026-05-04 15:43 50.96556 3.42786 28140 ft 491 kts 28°
2026-05-04 15:43 50.99551 3.45309 27566 ft 486 kts 28°
2026-05-04 15:43 51.02526 3.47822 26994 ft 481 kts 28°
2026-05-04 15:43 51.05466 3.50307 26452 ft 476 kts 28°
2026-05-04 15:44 51.08372 3.52769 25900 ft 472 kts 28°
2026-05-04 15:44 51.11254 3.55212 25341 ft 467 kts 28°
2026-05-04 15:44 51.14154 3.57482 24486 ft 461 kts 24°
2026-05-04 15:44 51.17074 3.59529 23680 ft 455 kts 22°
2026-05-04 15:45 51.19971 3.61493 22873 ft 448 kts 22°
2026-05-04 15:45 51.22819 3.63437 22193 ft 442 kts 23°
2026-05-04 15:45 51.25623 3.65385 21586 ft 437 kts 23°
2026-05-04 15:45 51.28398 3.67345 20986 ft 433 kts 24°
2026-05-04 15:46 51.31129 3.69296 20438 ft 429 kts 24°
2026-05-04 15:46 51.33831 3.71239 19875 ft 423 kts 24°
2026-05-04 15:46 51.36504 3.73168 19322 ft 418 kts 24°
2026-05-04 15:46 51.39138 3.75072 18782 ft 413 kts 24°
2026-05-04 15:47 51.41734 3.76952 18241 ft 408 kts 24°
2026-05-04 15:47 51.44314 3.78822 17652 ft 404 kts 24°
2026-05-04 15:47 51.46867 3.80675 17090 ft 400 kts 24°
2026-05-04 15:47 51.49401 3.82515 16561 ft 398 kts 24°
2026-05-04 15:48 51.51879 3.84318 16060 ft 395 kts 24°
2026-05-04 15:48 51.54376 3.86135 15537 ft 392 kts 24°
2026-05-04 15:48 51.59322 3.89729 14281 ft 385 kts 24°
2026-05-04 15:49 51.61751 3.91507 13737 ft 381 kts 24°
2026-05-04 15:49 51.64164 3.93275 13166 ft 379 kts 24°
2026-05-04 15:49 51.66549 3.95024 12653 ft 375 kts 24°
2026-05-04 15:49 51.68925 3.96767 12158 ft 373 kts 24°
2026-05-04 15:50 51.71274 3.98492 11687 ft 370 kts 24°
2026-05-04 15:50 51.73608 4.00207 11222 ft 367 kts 24°
2026-05-04 15:50 51.75921 4.01908 10924 ft 365 kts 24°
2026-05-04 15:50 51.78196 4.03584 10783 ft 347 kts 24°
2026-05-04 15:51 51.80313 4.05146 10675 ft 322 kts 24°
2026-05-04 15:51 51.82248 4.06576 10566 ft 300 kts 24°
2026-05-04 15:51 51.84101 4.07945 10428 ft 289 kts 24°
2026-05-04 15:51 51.85925 4.09295 10331 ft 288 kts 24°
2026-05-04 15:52 51.87749 4.10658 10104 ft 289 kts 24°
2026-05-04 15:52 51.89575 4.12025 9648 ft 288 kts 24°
2026-05-04 15:52 51.91347 4.13450 9159 ft 284 kts 31°
2026-05-04 15:52 51.92962 4.15294 8723 ft 281 kts 37°
2026-05-04 15:53 51.94484 4.17259 8315 ft 280 kts 39°
2026-05-04 15:53 51.95995 4.19264 7901 ft 279 kts 39°
2026-05-04 15:53 51.97492 4.21260 7501 ft 277 kts 39°
2026-05-04 15:53 51.98979 4.23243 7107 ft 276 kts 39°
2026-05-04 15:54 52.00437 4.25187 6712 ft 274 kts 39°
2026-05-04 15:54 52.01908 4.27148 6347 ft 272 kts 39°
2026-05-04 15:54 52.03374 4.29101 5987 ft 271 kts 39°
2026-05-04 15:54 52.04829 4.31041 5620 ft 270 kts 39°
2026-05-04 15:55 52.06252 4.32940 5278 ft 269 kts 39°
2026-05-04 15:55 52.07694 4.34865 4936 ft 267 kts 39°
2026-05-04 15:55 52.09129 4.36782 4584 ft 265 kts 39°
2026-05-04 15:55 52.10543 4.38672 4253 ft 264 kts 39°
2026-05-04 15:56 52.11952 4.40557 3889 ft 259 kts 39°
2026-05-04 15:56 52.13329 4.42400 3564 ft 253 kts 39°
2026-05-04 15:56 52.14647 4.44167 3266 ft 236 kts 39°
2026-05-04 15:56 52.15889 4.45834 2972 ft 230 kts 39°
2026-05-04 15:57 52.17097 4.47455 2782 ft 216 kts 39°
2026-05-04 15:57 52.18219 4.48963 2692 ft 208 kts 39°
2026-05-04 15:57 52.19327 4.50452 2607 ft 206 kts 39°
2026-05-04 15:57 52.20406 4.51995 2500 ft 207 kts 47°
2026-05-04 15:58 52.21255 4.53847 2256 ft 204 kts 54°
2026-05-04 15:58 52.21994 4.55717 1989 ft 186 kts 56°
2026-05-04 15:58 52.22670 4.57473 2018 ft 183 kts 56°
2026-05-04 15:58 52.23345 4.59226 1979 ft 181 kts 56°
2026-05-04 15:59 52.24020 4.60979 1851 ft 183 kts 56°
2026-05-04 15:59 52.24678 4.62694 1589 ft 171 kts 55°
2026-05-04 15:59 52.25262 4.64222 1305 ft 151 kts 55°
2026-05-04 15:59 52.25805 4.65632 1145 ft 150 kts 55°
2026-05-04 16:00 52.26376 4.67113 943 ft 149 kts 55°
2026-05-04 16:00 52.26916 4.68541 686 ft 155 kts 56°
2026-05-04 16:00 52.27496 4.70047 527 ft 155 kts 56°
2026-05-04 16:00 52.28059 4.71507 322 ft 151 kts 57°
2026-05-04 16:01 52.28616 4.72963 120 ft 150 kts 56°
2026-05-04 16:01 52.29172 4.74401 10 ft 134 kts 56°
2026-05-04 16:01 52.29477 4.75199 5 ft 54 kts 58°
2026-05-04 16:01 52.29633 4.75606 6 ft 26 kts 58°
2026-05-04 16:02 52.29712 4.75742 5 ft 22 kts 33°
2026-05-04 16:02 52.29821 4.75838 6 ft 16 kts 27°
2026-05-04 16:02 52.29954 4.75952 6 ft 9 kts 29°
2026-05-04 16:03 52.30016 4.76054 6 ft 10 kts 56°
2026-05-04 16:03 52.30043 4.76123 6 ft 11 kts 57°
2026-05-04 16:03 52.30086 4.76235 6 ft 12 kts 58°
2026-05-04 16:03 52.30133 4.76358 7 ft 13 kts 58°
2026-05-04 16:04 52.30184 4.76490 6 ft 15 kts 58°
2026-05-04 16:04 52.30297 4.76785 6 ft 17 kts 58°
2026-05-04 16:04 52.30363 4.76954 6 ft 17 kts 58°
2026-05-04 16:05 52.30424 4.77116 6 ft 17 kts 58°
2026-05-04 16:05 52.30484 4.77274 6 ft 16 kts 58°
2026-05-04 16:05 52.30604 4.77549 6 ft 14 kts 38°
2026-05-04 16:06 52.30690 4.77590 6 ft 13 kts
2026-05-04 16:06 52.30959 4.77617 6 ft 12 kts
2026-05-04 16:07 52.31045 4.77624 6 ft 12 kts
2026-05-04 16:07 52.31252 4.77633 6 ft 6 kts 339°
2026-05-04 16:08 52.31277 4.77582 6 ft 6 kts 291°
2026-05-04 16:08 52.31293 4.77305 6 ft 2 kts 271°
2026-05-04 16:09 52.31281 4.77279 7 ft 2 kts 218°
2026-05-04 16:09 52.31248 4.77273 6 ft 4 kts 184°
2026-05-04 16:10 52.31221 4.77271 6 ft 0 kts 183°